Wind_Speed
7 7 7 7 7 6 7 7 8 8 8 8 7 6 5 4 4 3 3 2 2 2 2 3 4 4 5 5 5 5 5 5 5 5 5 6 7 8 8 9 9 10 10
8 8 8 8 7 7 8 8 8 9 9 8 8 7 6 6 5 4 4 4 3 4 4 4 5 5 5 5 5 5 4 4 4 5 5 6 7 8 9 9 10 10 11
8 8 8 8 8 8 8 9 9 9 9 9 8 8 7 6 6 5 5 4 4 4 4 5 5 5 4 4 4 4 4 4 4 5 6 6 7 8 9 10 11 11 12
9 9 8 8 8 8 9 9 10 10 10 9 9 8 7 7 6 6 5 5 5 5 5 5 5 5 4 4 4 4 4 4 5 6 6 7 8 9 10 11 12 13 13
9 9 8 8 8 8 9 10 10 11 11 10 9 8 8 7 6 6 5 5 5 5 5 5 5 5 5 5 5 5 5 5 6 7 7 8 9 10 10 11 12 13 13
9 9 8 8 8 8 9 10 11 11 11 11 10 9 8 7 6 6 5 5 4 4 4 4 5 5 6 7 7 7 7 7 8 8 9 10 10 11 11 12 12 13 13
9 9 9 8 8 9 10 11 11 11 11 11 10 9 8 7 6 6 5 4 4 3 4 4 5 6 7 8 9 9 9 9 10 10 11 11 11 12 12 12 12 12 13
9 9 9 9 9 9 10 11 12 12 12 11 10 9 8 7 6 5 4 4 3 3 4 5 6 8 9 10 10 10 11 11 12 12 12 12 12 13 13 12 12 12 12
9 10 9 9 10 10 11 12 12 12 11 11 10 9 8 6 5 5 4 3 2 3 4 6 7 9 10 11 11 12 12 13 13 12 13 13 13 13 12 12 12 12 13
10 10 10 10 11 11 12 12 12 11 11 10 10 9 7 6 5 4 3 3 3 4 5 7 8 10 12 12 12 12 13 13 13 13 13 13 13 12 12 12 13 12 13
10 11 11 11 12 12 12 12 12 11 11 10 9 8 8 7 6 4 4 3 4 5 7 8 10 11 13 13 13 13 13 13 14 13 13 13 12 12 12 12 13 13 13
10 12 12 11 12 12 12 12 11 11 10 10 9 9 8 7 6 5 5 5 5 6 8 10 11 12 13 13 13 13 13 13 13 13 13 13 13 12 12 13 13 14 15
11 12 12 12 12 12 12 11 11 10 10 10 10 10 10 9 8 7 7 7 7 8 9 11 12 13 14 14 14 14 13 13 13 13 13 13 13 13 13 14 14 15 16
11 11 11 11 12 11 11 11 10 10 10 11 11 11 11 11 10 9 9 9 9 9 11 12 13 14 14 14 14 14 13 13 13 13 13 13 13 14 14 15 16 17 18
12 12 12 11 11 11 11 11 11 11 11 11 12 12 12 12 12 11 11 11 11 12 13 13 14 15 15 15 14 14 14 14 13 13 13 14 14 14 15 16 17 18 19
14 13 13 12 11 11 12 11 11 12 12 13 13 14 14 14 14 14 14 14 14 14 15 15 15 15 16 15 15 15 14 15 14 14 14 15 15 16 17 18 19 19 20
15 15 14 14 13 12 13 13 13 13 14 14 15 15 16 16 17 17 17 17 17 17 18 18 18 18 18 18 17 17 17 16 16 16 16 16 17 17 18 19 20 20 21
17 16 16 15 14 14 14 15 15 15 15 16 16 17 18 19 19 20 21 21 21 21 21 21 22 21 21 20 20 19 19 19 18 17 18 18 18 19 19 20 21 21 23
19 19 19 18 17 16 17 17 17 17 17 18 19 19 21 22 24 24 25 25 26 26 26 26 25 25 24 23 22 21 21 21 20 20 21 21 20 21 22 22 23 25 25
21 21 22 21 21 20 19 19 19 19 20 20 21 22 24 26 28 29 29 30 30 30 29 29 28 27 27 25 24 23 23 23 24 24 24 24 24 25 25 26 27 28 29
24 23 23 24 24 23 21 21 21 22 23 24 25 25 27 29 31 32 32 32 31 31 31 29 28 28 29 27 26 25 26 26 27 28 28 28 28 28 29 30 31 33 34
27 25 25 25 26 25 25 25 26 26 26 27 28 28 30 32 34 35 35 34 34 32 30 29 29 28 27 28 28 28 28 28 29 30 30 30 31 32 33 34 36 37 38
29 27 26 27 27 27 28 29 28 28 28 29 30 31 33 34 35 35 34 33 32 30 29 29 29 29 27 26 27 27 28 30 31 32 33 34 34 35 37 38 40 41 42
31 29 29 29 29 29 31 31 30 30 31 32 33 33 34 35 35 35 33 32 31 29 29 29 30 29 28 27 28 29 30 31 33 34 35 36 38 39 40 42 43 44 45
34 33 31 32 32 32 33 33 33 33 33 34 35 35 35 35 36 34 33 32 31 30 30 29 29 29 28 29 31 32 33 34 35 36 37 39 40 42 43 44 45 46 47
34 33 34 35 33 33 34 35 36 37 36 36 35 36 36 36 36 37 35 33 31 30 29 30 31 31 31 31 33 34 35 36 37 39 41 42 43 44 45 46 47 49 50
Wind_Direction
219 217 218 218 222 229 236 243 242 234 225 218 214 209 205 201 197 196 196 203 215 226 241 257 265 271 275 280 281 281 280 277 271 272 274 274 273 271 268 266 264 264 264
229 226 224 224 224 226 231 236 236 231 224 219 216 216 215 214 215 220 223 225 230 236 246 254 261 267 271 272 270 267 265 264 262 262 263 265 266 267 267 267 266 265 265
234 231 227 225 224 224 226 228 228 226 223 218 217 217 216 216 219 221 222 226 230 236 244 251 258 263 267 267 265 261 258 257 256 256 258 261 264 266 267 270 270 268 267
234 231 228 224 220 218 219 220 220 219 215 212 211 211 212 212 213 215 218 224 234 241 248 254 259 262 264 265 265 263 260 257 257 257 261 264 267 268 270 273 274 270 268
231 229 224 219 213 211 212 213 213 211 207 204 202 203 205 207 208 211 217 225 236 244 253 260 265 265 266 265 265 264 262 259 258 260 265 267 269 271 273 276 276 274 270
226 221 217 212 209 207 207 208 205 202 199 196 194 194 197 200 200 205 213 222 232 245 258 269 275 276 273 270 268 267 266 265 263 263 266 268 270 272 273 276 276 277 273
218 214 211 206 205 205 205 203 198 194 191 188 187 189 193 195 197 204 212 220 236 257 275 285 288 286 281 275 272 270 267 265 264 263 264 266 268 271 274 276 275 277 276
212 209 205 202 202 202 200 197 193 189 186 185 186 189 192 194 197 204 216 230 250 279 295 298 298 297 293 287 280 273 268 267 266 265 265 266 267 269 271 273 273 276 277
209 203 200 198 198 197 195 191 188 185 184 185 187 190 194 198 203 209 218 233 264 293 305 307 307 308 306 300 291 281 274 271 270 270 270 269 270 270 272 273 274 276 279
203 197 196 195 194 193 188 186 186 185 186 189 192 196 202 208 214 222 236 262 287 303 309 314 316 317 315 309 301 291 283 278 276 275 276 275 274 274 275 277 277 278 282
196 191 189 189 190 188 186 186 188 189 192 196 201 207 215 222 229 239 256 278 295 303 308 313 318 319 319 316 310 302 293 286 281 280 282 282 280 279 278 280 281 281 283
188 184 184 184 186 189 190 190 192 195 200 206 213 221 229 237 242 249 264 277 291 300 307 310 314 316 319 319 315 310 302 293 287 284 286 285 284 283 283 284 285 285 286
187 183 183 186 191 195 197 198 201 205 212 220 227 235 242 248 250 256 266 278 287 295 303 308 309 311 315 318 316 312 307 298 291 287 287 287 285 285 285 287 287 288 288
188 187 186 189 195 200 205 210 214 220 226 233 239 245 251 256 259 262 269 276 283 290 295 301 305 306 310 314 314 312 308 304 296 289 287 287 286 286 286 287 288 290 290
196 191 192 198 203 207 213 218 224 232 239 243 249 254 256 260 263 266 269 272 277 284 289 293 299 300 303 308 310 310 306 303 298 292 290 291 291 290 290 289 290 292 293
205 201 199 204 210 216 222 225 233 241 245 248 254 257 260 261 263 266 268 270 274 280 284 287 291 294 294 298 300 300 300 299 296 293 293 292 292 292 293 293 293 294 295
215 212 210 211 215 222 229 233 239 245 249 254 258 260 262 264 266 267 268 270 272 275 278 280 283 286 286 288 290 292 292 292 289 290 292 292 292 291 292 293 293 294 295
223 221 219 219 222 227 233 238 243 247 250 255 259 261 262 264 265 266 268 270 271 273 275 277 278 279 281 281 282 284 286 286 285 285 285 288 289 289 288 288 289 289 290
226 225 223 223 225 230 235 240 243 246 250 254 259 263 265 266 266 266 268 270 272 273 275 277 278 277 277 278 278 280 281 280 281 281 280 282 284 284 284 284 285 285 287
229 229 225 225 228 231 235 240 243 247 248 252 259 264 269 270 269 268 270 271 272 274 276 276 276 275 274 274 275 277 279 278 278 279 279 280 280 282 282 284 284 284 285
233 234 228 229 230 232 235 239 241 244 247 252 257 264 270 272 271 271 271 273 274 274 277 277 277 276 274 272 273 275 276 276 276 277 278 278 279 280 281 282 283 284 284
237 240 238 237 235 234 236 239 242 246 252 257 260 263 268 272 272 270 273 273 274 273 275 276 277 278 276 274 274 275 273 274 276 277 277 278 278 279 280 281 283 283 284
242 241 240 240 239 238 239 243 246 249 254 257 260 262 268 272 272 270 271 276 277 276 280 280 279 279 274 275 275 275 275 275 276 276 277 278 279 280 281 282 283 283 283
242 244 243 240 242 242 242 244 248 252 254 258 260 263 268 273 274 276 277 282 282 282 284 282 280 278 274 274 276 276 276 276 276 276 276 277 278 279 280 281 282 282 283
243 243 244 244 242 242 244 247 249 253 255 258 263 268 273 277 281 284 288 289 290 290 285 282 279 279 276 275 276 276 276 277 276 276 277 278 278 278 279 280 281 283 284
244 245 245 244 245 249 251 254 256 258 261 264 267 272 274 279 287 290 291 292 292 293 291 285 280 279 278 277 277 276 276 276 275 276 277 277 278 278 279 280 281 283 284
Height
5903 5904 5904 5905 5905 5905 5906 5906 5907 5908 5908 5908 5908 5908 5908 5909 5909 5909 5910 5910 5910 5910 5910 5910 5910 5910 5910 5910 5910 5910 5910 5910 5910 5909 5909 5909 5909 5909 5909 5909 5909 5909 5910
5901 5902 5902 5903 5904 5904 5904 5905 5906 5906 5906 5907 5907 5907 5907 5907 5908 5908 5908 5908 5908 5909 5909 5908 5908 5908 5908 5908 5908 5908 5908 5908 5908 5908 5907 5907 5908 5908 5907 5907 5907 5907 5908
5899 5900 5900 5901 5902 5902 5903 5904 5904 5905 5905 5905 5905 5906 5906 5906 5906 5907 5907 5907 5907 5907 5907 5907 5907 5906 5906 5906 5906 5906 5906 5906 5906 5906 5906 5906 5906 5906 5906 5906 5905 5905 5905
5897 5897 5898 5899 5900 5900 5901 5902 5902 5903 5903 5904 5904 5904 5904 5905 5905 5905 5906 5905 5905 5905 5905 5905 5905 5905 5905 5904 5904 5904 5904 5904 5904 5904 5904 5904 5904 5904 5904 5904 5903 5903 5903
5895 5895 5896 5897 5898 5899 5899 5900 5901 5902 5902 5902 5902 5903 5903 5904 5904 5905 5905 5905 5904 5904 5904 5904 5904 5904 5903 5903 5903 5902 5902 5902 5902 5902 5902 5902 5902 5902 5902 5901 5901 5901 5901
5893 5893 5894 5894 5896 5897 5898 5899 5900 5900 5901 5901 5901 5901 5902 5903 5904 5904 5904 5904 5904 5904 5904 5903 5903 5902 5902 5902 5901 5901 5901 5900 5900 5900 5900 5899 5899 5899 5899 5899 5899 5899 5898
5891 5891 5892 5892 5894 5895 5896 5897 5898 5899 5899 5900 5900 5901 5901 5902 5903 5903 5903 5904 5904 5904 5903 5903 5902 5901 5901 5900 5900 5899 5899 5898 5898 5898 5898 5897 5897 5897 5897 5897 5897 5897 5896
5889 5890 5890 5891 5892 5893 5894 5895 5896 5897 5898 5899 5900 5900 5901 5902 5902 5903 5903 5903 5903 5903 5903 5902 5901 5900 5899 5899 5898 5898 5897 5897 5896 5896 5896 5895 5895 5895 5895 5895 5895 5894 5894
5888 5888 5889 5890 5891 5892 5893 5894 5896 5897 5898 5898 5899 5900 5900 5901 5902 5902 5902 5902 5902 5902 5902 5901 5900 5899 5898 5897 5896 5896 5895 5895 5894 5894 5894 5893 5893 5893 5893 5893 5892 5892 5892
5887 5887 5888 5889 5890 5891 5892 5894 5895 5896 5897 5898 5898 5899 5899 5900 5901 5901 5901 5901 5901 5901 5900 5899 5899 5898 5896 5895 5894 5893 5893 5893 5892 5892 5892 5891 5891 5891 5891 5890 5890 5890 5890
5885 5886 5887 5888 5889 5891 5892 5893 5894 5895 5896 5897 5898 5898 5899 5899 5900 5900 5900 5900 5900 5900 5899 5898 5897 5896 5894 5893 5892 5891 5890 5890 5890 5890 5889 5889 5889 5889 5888 5888 5888 5887 5887
5884 5885 5886 5888 5889 5890 5891 5892 5893 5894 5896 5896 5897 5897 5898 5898 5899 5899 5899 5899 5899 5898 5897 5897 5895 5894 5892 5891 5889 5888 5888 5887 5887 5887 5887 5887 5886 5886 5886 5885 5885 5885 5884
5883 5884 5886 5887 5888 5890 5891 5892 5893 5894 5895 5896 5896 5897 5897 5897 5897 5898 5898 5898 5897 5897 5896 5895 5894 5892 5891 5889 5888 5886 5885 5885 5884 5884 5884 5884 5883 5883 5883 5882 5882 5881 5881
5883 5884 5885 5886 5888 5889 5890 5891 5892 5893 5894 5895 5895 5896 5896 5896 5896 5897 5897 5896 5896 5895 5894 5893 5892 5890 5889 5887 5886 5884 5883 5882 5881 5881 5881 5880 5880 5880 5879 5879 5878 5878 5877
5883 5883 5885 5886 5887 5888 5889 5890 5891 5892 5893 5894 5894 5894 5894 5895 5895 5895 5895 5894 5894 5893 5892 5891 5890 5888 5887 5885 5884 5882 5881 5880 5879 5878 5878 5877 5877 5877 5876 5875 5875 5874 5873
5881 5882 5883 5884 5885 5887 5888 5889 5890 5891 5891 5892 5892 5892 5893 5893 5893 5893 5892 5892 5892 5891 5890 5889 5888 5886 5884 5883 5881 5880 5879 5877 5876 5875 5875 5874 5873 5873 5872 5872 5871 5870 5869
5880 5881 5881 5882 5883 5885 5886 5887 5887 5888 5889 5890 5890 5890 5890 5891 5890 5890 5890 5889 5889 5888 5887 5886 5885 5883 5882 5880 5878 5877 5876 5875 5873 5872 5871 5871 5870 5869 5868 5867 5866 5865 5864
5877 5878 5879 5880 5882 5882 5883 5884 5885 5886 5887 5887 5887 5888 5888 5887 5887 5887 5886 5885 5884 5884 5883 5882 5880 5879 5878 5876 5875 5873 5872 5871 5870 5868 5867 5867 5866 5865 5864 5863 5862 5860 5859
5874 5875 5877 5878 5879 5880 5881 5882 5882 5883 5884 5884 5884 5884 5884 5884 5883 5882 5881 5881 5879 5878 5877 5876 5875 5874 5872 5871 5870 5869 5868 5867 5866 5865 5863 5862 5861 5860 5859 5858 5857 5855 5854
5871 5872 5873 5875 5875 5876 5877 5878 5879 5880 5880 5880 5880 5880 5880 5879 5878 5877 5876 5875 5873 5872 5871 5870 5869 5867 5866 5865 5864 5863 5863 5862 5861 5860 5859 5857 5856 5855 5854 5853 5851 5850 5848
5867 5869 5870 5871 5872 5873 5874 5875 5875 5875 5875 5876 5875 5875 5874 5872 5871 5870 5869 5868 5866 5865 5865 5863 5861 5860 5859 5858 5858 5857 5857 5856 5855 5854 5853 5852 5851 5849 5848 5846 5844 5843 5841
5864 5865 5866 5866 5867 5868 5869 5870 5870 5870 5870 5870 5870 5869 5867 5865 5864 5862 5861 5861 5859 5858 5857 5856 5855 5853 5852 5852 5851 5850 5849 5849 5848 5847 5846 5845 5844 5842 5841 5839 5837 5835 5833
5859 5860 5861 5862 5863 5864 5864 5864 5864 5864 5864 5864 5863 5862 5860 5859 5857 5855 5854 5853 5852 5851 5849 5848 5847 5846 5846 5845 5844 5843 5843 5842 5842 5841 5839 5838 5836 5835 5833 5830 5828 5826 5823
5854 5855 5856 5857 5858 5858 5858 5858 5858 5858 5858 5857 5854 5853 5853 5852 5850 5849 5847 5845 5844 5843 5841 5841 5839 5839 5838 5838 5838 5837 5837 5835 5834 5833 5831 5830 5828 5826 5824 5821 5819 5816 5813
5848 5849 5850 5851 5852 5852 5852 5852 5852 5852 5851 5849 5848 5847 5846 5845 5843 5841 5839 5838 5837 5835 5835 5833 5832 5832 5832 5831 5831 5830 5829 5827 5826 5824 5823 5821 5819 5817 5814 5811 5808 5805 5802
5842 5843 5844 5845 5845 5846 5846 5846 5845 5845 5843 5841 5841 5840 5839 5838 5835 5834 5833 5831 5830 5829 5828 5827 5826 5826 5825 5824 5823 5821 5820 5819 5817 5815 5813 5811 5809 5806 5804 5800 5797 5794 5790